TimeEST,TemperatureF,Dew PointF,Humidity,Sea Level PressureIn,VisibilityMPH,Wind Direction,Wind SpeedMPH,Gust SpeedMPH,PrecipitationIn,Events,Conditions,WindDirDegrees,DateUTC
12:54 AM,44.1,39.9,85,30.27,10.0,North,4.6,-,N/A,,Overcast,350,2012-11-16 05:54:00
1:06 AM,44.6,39.2,81,30.26,10.0,Calm,Calm,-,N/A,,Overcast,0,2012-11-16 06:06:00
1:23 AM,44.6,39.2,81,30.26,10.0,North,3.5,-,N/A,,Overcast,350,2012-11-16 06:23:00
1:54 AM,44.1,39.0,82,30.27,10.0,Calm,Calm,-,N/A,,Overcast,0,2012-11-16 06:54:00
2:54 AM,43.0,39.0,86,30.28,10.0,Calm,Calm,-,N/A,,Overcast,0,2012-11-16 07:54:00
3:18 AM,41.0,37.4,87,30.27,10.0,Calm,Calm,-,N/A,,Scattered Clouds,0,2012-11-16 08:18:00
3:54 AM,39.0,37.0,93,30.28,10.0,WNW,3.5,-,N/A,,Clear,290,2012-11-16 08:54:00
4:54 AM,37.0,35.1,93,30.29,10.0,Calm,Calm,-,N/A,,Clear,0,2012-11-16 09:54:00
5:54 AM,36.0,34.0,93,30.28,10.0,Calm,Calm,-,N/A,,Clear,0,2012-11-16 10:54:00
6:54 AM,36.0,33.1,89,30.29,10.0,Calm,Calm,-,N/A,,Clear,0,2012-11-16 11:54:00
7:54 AM,39.0,35.1,86,30.31,10.0,NNW,4.6,-,N/A,,Clear,340,2012-11-16 12:54:00
8:54 AM,43.0,37.0,80,30.32,10.0,North,3.5,-,N/A,,Clear,10,2012-11-16 13:54:00
9:54 AM,46.9,37.9,71,30.33,10.0,NE,6.9,-,N/A,,Clear,50,2012-11-16 14:54:00
10:54 AM,48.9,37.9,66,30.33,10.0,ENE,6.9,-,N/A,,Clear,60,2012-11-16 15:54:00
11:54 AM,51.1,36.0,56,30.31,10.0,North,8.1,-,N/A,,Clear,10,2012-11-16 16:54:00
12:54 PM,54.0,35.1,49,30.29,10.0,NNE,9.2,-,N/A,,Clear,30,2012-11-16 17:54:00
1:54 PM,55.0,34.0,45,30.28,10.0,NNE,6.9,-,N/A,,Clear,30,2012-11-16 18:54:00
2:54 PM,55.0,32.0,42,30.27,10.0,North,8.1,-,N/A,,Clear,360,2012-11-16 19:54:00
3:54 PM,55.0,32.0,42,30.28,10.0,North,9.2,-,N/A,,Clear,360,2012-11-16 20:54:00
4:54 PM,51.1,30.9,46,30.30,10.0,NNE,8.1,-,N/A,,Clear,20,2012-11-16 21:54:00
5:54 PM,46.0,32.0,58,30.32,10.0,Calm,Calm,-,N/A,,Clear,0,2012-11-16 22:54:00
6:54 PM,43.0,33.1,68,30.33,10.0,NNE,3.5,-,N/A,,Clear,30,2012-11-16 23:54:00
7:54 PM,41.0,33.1,73,30.36,10.0,Calm,Calm,-,N/A,,Clear,0,2012-11-17 00:54:00
8:54 PM,39.0,33.1,79,30.37,10.0,Calm,Calm,-,N/A,,Clear,0,2012-11-17 01:54:00
9:54 PM,37.0,32.0,82,30.39,10.0,Calm,Calm,-,N/A,,Clear,0,2012-11-17 02:54:00
10:54 PM,39.0,32.0,76,30.39,10.0,North,3.5,-,N/A,,Clear,360,2012-11-17 03:54:00
11:54 PM,39.0,30.9,73,30.40,10.0,NNE,3.5,-,N/A,,Clear,20,2012-11-17 04:54:00